Location: Woodstock
(43.1330°N, 80.7500°W)
Time: 07:04:09
(UTC-04:00)

Daily predictions for brighter satellites

Satellite Brightness Start Highest point End
(mag) Time Altitude Azimuth Time Altitude Azimuth Time Altitude Azimuth
SL-8 Rocket 4.0 18:52:43 10° S 18:58:53 82° E 19:05:09 10° N
Cosmos 2322 Rocket 2.7 18:53:43 10° NNW 18:59:19 68° WSW 19:04:52 10° SSE
Meteor 2-15 Rocket 4.5 18:53:14 10° N 18:59:22 84° E 19:05:29 10° S
BREEZE-M DEB (TANK) 3.6 18:56:11 10° WNW 18:59:46 61° NNE 19:12:21 10° ESE
Cosmos 1833 4.5 18:55:12 10° S 19:00:38 49° ESE 19:06:04 10° NE
COSMO-SKYMED 1 3.2 18:56:38 10° NNE 19:00:39 35° E 19:04:38 10° SSE
Cosmos 1408 Rocket 4.1 18:59:19 10° NNW 19:03:44 68° W 19:08:10 10° S
Abrixas rocket 3.2 19:08:38 10° W 19:11:45 38° NNW 19:14:51 10° ENE
Ariane Rocket 4.3 19:11:27 10° S 19:16:20 45° W 19:21:14 10° NNW
Cosmos 1315 Rocket 3.3 19:12:53 10° N 19:16:44 39° ENE 19:20:35 10° SE
FENGYUN 3A 4.0 19:13:16 10° SE 19:18:18 41° ENE 19:23:21 10° N
Cosmos 44 4.2 19:16:23 10° SSE 19:19:51 24° ESE 19:23:08 11° ENE
EO 1 Del DPAF 3.2 19:16:45 10° NNE 19:20:37 74° ESE 19:24:26 10° S
Meteor 2-1 Rocket 4.3 19:16:25 10° S 19:22:06 61° E 19:27:56 10° NNE
Cosmos 2322 3.7 19:18:15 10° NNW 19:23:58 66° ENE 19:29:38 10° SE
YAOGAN 1 2.9 19:20:30 10° S 19:24:49 73° WSW 19:29:10 10° NNW
Cosmos 2218 Rocket 4.2 19:18:47 10° SSW 19:24:55 77° W 19:31:06 10° N
SKYMED 3 4.5 19:26:26 10° NNE 19:30:47 76° ESE 19:35:07 10° S
Cosmos 2151 3.0 19:26:42 10° N 19:31:00 90° NNE 19:35:15 10° S
Cosmos 1727 Rocket 4.1 19:27:12 10° N 19:33:37 87° W 19:39:57 10° S
SPOT 3 Rocket 3.5 19:29:41 10° SSE 19:34:52 82° ENE 19:40:07 10° NNW
ERS-2 3.9 19:31:52 10° SSW 19:35:17 36° W 19:38:45 10° NNW
Aureole 2 4.1 19:36:15 10° NNW 19:39:19 70° ENE 19:42:43 10° SSE
RESURS DK-1 2.6 19:35:22 10° NNW 19:39:30 74° WSW 19:43:36 10° SSE
Cosmos 2219 Rocket 2.9 19:34:40 10° N 19:39:41 32° NE 19:43:15 17° ESE
Lacrosse 5 rocket 3.8 19:37:02 10° NW 19:39:43 16° NNW 19:42:21 10° NNE
Cosmos 468 4.5 19:35:47 10° S 19:40:54 60° ESE 19:46:04 10° NNE
GRACE-2 3.5 19:38:47 10° S 19:41:21 85° E 19:43:56 10° N
SJ-6B 3.8 19:40:35 21° E 19:41:22 23° ENE 19:44:22 10° NNE
GP-B 3.7 19:37:14 10° N 19:41:38 62° W 19:46:00 10° SSW
FREGAT/IRIS 3.5 19:42:27 27° E 19:42:51 28° ENE 19:45:28 10° N
Cosmos 44 Rocket 3.6 19:38:56 10° S 19:43:20 40° ESE 19:46:44 16° NE
SL-8 R/B 3.7 19:39:34 10° WSW 19:44:24 85° NNW 19:47:49 19° ENE
GRACE-1 3.7 19:42:06 10° S 19:44:40 79° W 19:47:17 10° N
Cosmos 1452 Rocket 3.7 19:42:07 10° NNW 19:47:23 78° WSW 19:52:38 10° SSE
Cosmos 1703 4.1 19:44:32 10° NNW 19:48:22 52° W 19:52:10 10° S
SKYMED 2 3.9 19:44:27 10° N 19:48:47 69° WNW 19:53:05 10° SSW
Cosmos 2058 3.6 19:44:54 10° NNW 19:49:01 56° W 19:53:04 10° S
Cosmos 1726 2.6 19:45:39 10° SSE 19:49:02 35° E 19:52:25 10° NNE
Cosmos 2098 Rocket 3.6 19:45:30 10° SSE 19:49:45 48° E 19:55:10 10° NNE
Atlas Centaur 2 3.9 19:47:50 10° SW 19:50:55 17° S 19:54:26 10° SE
BREEZE-M DEB (TANK) 3.7 19:51:34 10° W 19:53:00 16° SW 19:54:30 10° S
Gbstr 26 Del rocket 3.7 19:49:53 10° NW 19:54:49 60° NNE 19:58:17 25° E
Aureole 2 Rocket 3.3 19:53:52 10° N 19:57:30 36° ENE 19:58:14 33° E
Cosmos 2333 4.2 19:53:58 10° NNW 19:59:42 68° ENE 20:05:25 10° SSE
Cosmos 2221 2.4 19:55:29 10° S 19:59:47 85° E 20:04:10 10° N
Cosmos 1908 3.5 19:57:56 10° SSW 20:01:50 70° W 20:05:45 10° N
Cosmos 2237 4.4 19:56:40 10° NNW 20:02:24 77° WSW 20:08:06 10° SSE
CZ-4C R/B 2.2 19:59:43 10° SSW 20:04:42 52° ESE 20:08:30 20° NE
USA 234 4.4 20:02:15 19° ENE 20:05:49 30° NNE 20:11:21 10° NW
NOAA 12 4.4 20:01:18 10° S 20:06:34 69° WSW 20:11:54 10° NNW
Cosmos 921 Rocket 3.8 20:02:35 10° NNW 20:06:56 53° WSW 20:11:11 10° S
BREEZE-M DEB (TANK) 2.6 20:05:17 10° W 20:07:09 36° NNW 20:07:09 36° NNW
H-2A R/B 2.7 20:07:33 18° SSE 20:10:19 66° ENE 20:14:14 10° N
SAR-Lupe-3 4.5 20:07:11 10° NNE 20:10:47 89° WNW 20:14:21 10° SSW
Iridium 4 Rocket 3.7 20:06:38 10° S 20:12:12 88° W 20:18:05 10° N
Cosmos 2237 Rocket 2.9 20:07:16 10° N 20:12:23 33° NE 20:13:12 31° ENE
Cosmos 2084 4.1 20:10:40 10° NNW 20:13:43 32° NNE 20:13:43 32° NNE
DELTA 2 R/B (1) 4.4 20:11:09 10° W 20:16:25 43° SSW 20:19:09 25° SE
Cosmos 2227 Rocket 3.9 20:16:14 10° SSE 20:17:28 16° SSE 20:17:28 16° SSE
Resurs 01 Rocket 2.9 20:23:45 26° NNE 20:23:45 26° NNE 20:26:11 10° N
SL-16 R/B 3.8 20:18:32 10° N 20:21:48 19° NE 20:21:48 19° NE
ALOS 3.4 20:20:52 10° S 20:25:19 44° W 20:29:48 10° NNW
Cosmos 1048 Rocket 4.1 20:21:24 10° SSW 20:26:31 75° WNW 20:31:39 10° NNE
Envisat 3.6 20:35:33 39° NE 20:35:33 39° NE 20:39:22 10° N
Cosmos 2360 Rocket 4.2 20:30:09 10° NW 20:34:51 27° WSW 20:39:31 10° SSW
APEX 4.1 20:33:03 10° SW 20:35:53 34° WNW 20:35:53 34° WNW
Cosmos 1980 3.8 20:30:38 10° NNW 20:36:09 51° ENE 20:36:25 51° ENE
NOSS 0 Rocket 3.8 20:30:03 10° NNW 20:36:14 67° ENE 20:37:56 47° SE
Cosmos 1535 Rocket 4.5 20:30:27 10° S 20:36:35 80° W 20:42:43 10° N
Thor Agena Rocket 3.8 20:31:45 10° N 20:36:50 67° WNW 20:41:50 10° SSW
Meteor 2-2 Rocket 4.1 20:32:52 10° S 20:38:29 62° E 20:44:03 10° NNE
COSMOS 2428 3.2 20:33:13 10° NNW 20:38:46 57° WSW 20:44:03 11° S
Cosmos 2333 Rocket 2.1 20:36:22 10° NNW 20:42:09 81° ENE 20:43:38 52° SE
Sich 1 3.2 20:38:57 10° NNW 20:43:19 72° W 20:44:35 45° SSW
Cosmos 2219 3.5 20:41:34 10° SSW 20:47:18 68° WNW 20:53:02 10° NNE
Abrixas rocket 4.4 20:45:49 10° WNW 20:47:29 23° NW 20:47:29 23° NW
BREEZE-M DEB (TANK) 2.9 20:44:00 10° W 20:52:01 66° N 20:52:04 66° N
Centaur D AC-29 3.8 20:56:08 10° SW 20:58:16 12° SSW 20:59:12 11° SSW
Cosmos 44 4.3 20:56:46 10° WSW 21:00:51 38° NW 21:01:36 35° NNW
Cosmos 1666 Rocket 4.5 20:57:17 10° NNW 21:01:27 46° W 21:02:13 41° SW
Cosmos 1331 Rocket 4.0 20:57:50 10° NNW 21:02:36 74° NNW 21:02:36 74° NNW
Cosmos 1633 Rocket 4.0 21:04:37 10° NNW 21:08:36 46° W 21:08:36 46° W
USA 267 3.1 21:12:41 77° SE 21:12:42 77° SE 21:19:14 10° SW
MOS 1-B Rocket 4.2 21:15:59 49° SSW 21:17:17 63° WSW 21:23:19 10° NNW
Lacrosse 5 rocket 4.2 21:18:31 10° NNW 21:19:08 11° NNW 21:19:08 11° NNW
Cosmos 2219 Rocket 3.3 21:18:31 10° NW 21:23:41 39° WSW 21:25:02 34° SW
USA 234 3.9 21:49:37 48° NNW 21:49:37 48° NNW 21:54:30 10° NW
CZ-4C R/B 3.8 21:48:44 10° W 21:53:32 31° NW 21:53:44 31° NNW
Cosmos 2237 Rocket 3.6 21:51:13 10° NW 21:55:03 34° WNW 21:55:03 34° WNW
Resurs 01 Rocket 4.5 22:01:21 14° NW 22:01:21 14° NW 22:02:16 10° NW
SL-16 R/B 4.1 22:01:37 10° NNW 22:03:41 23° NNW 22:03:41 23° NNW
